EHI
0 0 0 0 0 0 0 0 0 0 0 0 0 0 0 0 0 0 0 0 0 0 0 0 0 0 0 0 0 0 0 0 0 0 0 0 0 0
0 0 0 0 0 0 0 0 0 0 0 0 0 0 0 0 0 0 0 0 0 0 0 0 0 0 0 0 0 0 0 0 0 0 0 0 0 0
0 0 0 0 0 0 0 0 0 0 0 0 0 0 0 0 0 0 0 0 0 0 0 0 0 0 0 0 0 0 0 0 0 0 0 0 0 0
0 0 0 0 0 0 0 0 0 0 0 0 0 0 0 0 0 0 0 0 0 0 0 0 0 0 0 0 0 0 0 0 0 0 0 0 0 0
0 0 0 0 0 0 0 0 0 0 0 0 0 0 0 0 0 0 0 0 0 0 0 0 0 0 0 0 0 0 0 0 0 0 0 0 0 0
0 0 0 0 0 0 0 0 0 0 0 0 0 0 0 0 0 0 0 0 0 0 0 0 0 0 0 0 0 0 0 0 0 0 0 0 0 0
0 0 0 0 0 0 0 0 0 0 0 0 0 0 0 0 0 0 0 0 0 0 0 0 0 0 0 0 0 0 0 0 0 0 0 0 0 0
0 0 0 0 0 0 0 0 0 0 0 0 0 0 0 0 0 0 0 0 0 0 0 0 0 0 0 0 0 0 0 0 0 0 0 0 0 0
0 0 0 0 0 0 0 0 0 0 0 0 0 0 0 0 0 0 0 0 0 0 0 0 0 0 0 0 0 0 0 0 0 0 0 0 0 0
0 0 0 0 0 0 0 0 0 0 0 0 0 0 0 0 0 0 0 0 0 0 0 0 0 0 0 0 0 0 0 0 0 0 0 0 0 0
0 0 0 0 0 0 0 0 0 0 0 0 0 0 0 0 0 0 0 0 0 0 0 0 0 0 0 0 0 0 0 0 0 0 0 0 0 0
0 0 0 0 0 0 0 0 0 0 0 0 0 0 0 0 0 0 0 0 0 0 0 0 0 0 0 0 0 0 0 0 0 0 0 0 0 0
0 0 0 0 0 0 0 0 0 0 0 0 0 0 0 0 0 0 0 0 0 0 0 0 0 0 0 0 0 0 0 0 0 0 0 0 0 0
0 0 0 0 0 0 0 0 0 0 0 0 0 0 0 0 0 0 0 0 0 0 0 0 0 0 0 0 0 0 0 0 0 0 0 0 0 0
0 0 0 0 0 0 0 0 0 0 0 0 0 0 0 0 0 0 0 0 0 0 0 0 0 0 0 0 0 0 0 0 0 0 0 0 0 0
0 0 0 0 0 0 0 0 0 0 0 0 0 0 0 0 0 0 0 0 0 0 0 0 0 0 0 0 0 0 0 0 0 0 0 0 0 0
0 0 0 0 0 0 0 0 0 0 0 0 0 0 0 0 0 0 0 0 0 0 0 0 0 0 0 0 0 0 0 0 0 0 0 0 0 0
0 0 0 0 0 0 0 0 0 0 0 0 0 0 0 0 0 0 0 0 0 0 0 0 0 0 0 0 0 0 0 0 0 0 0 0 0 0
0 0 0 0 0 0 0 0 0 0 0 0 0 0 0 0 0 0 0 0 0 0 0 0 0 0 0 0 0 0 0 0 0 0 0 0 0 0
0 0 0 0 0 0 0 0 0 0 0 0 0 0 0 0 0 0 0 0 0 0 0 0 0 0 0 0 0 0 0 0 0 0 0 0 0 0
0 0 0 0 0 0 0 0 0 0 0 0 0 0 0 0 0 0 0 0 0 0 0 0 0 0 0 0 0 0 0 0 0 0 0 0 0 0
0 0 0 0 0 0 0 0 0 0 0 0 0 0 0 0 0 0 0 0 0 0 0 0 0 0 0 0 0 0 0 0 0 0 0 0 0 0
0 0 0 0 0 0 0 0 0 0 0 0 0 0 0 0 0 0 0 0 0 0 0 0 0 0 0 0 0 0 0 0 0 0 0 0 0 0
Wind_Speed
3 2 1 1 1 2 2 2 3 1 2 2 2 2 2 2 3 3 4 6 8 8 9 9 9 9 8 8 8 8 8 9 9 9 9 9 10 11
2 3 2 2 2 2 2 2 2 3 3 2 2 2 3 3 4 4 5 8 9 10 11 11 11 11 11 11 11 11 11 11 11 11 10 10 10 10
3 4 4 3 3 2 2 2 3 3 4 3 3 3 3 4 4 3 4 5 6 10 12 13 13 13 13 13 13 13 13 13 13 12 12 12 11 12
5 5 5 4 4 4 3 4 4 4 4 5 3 3 4 4 5 5 5 5 6 9 12 13 14 14 14 15 14 14 14 14 14 14 14 13 13 13
6 6 6 5 5 4 4 4 4 4 5 5 5 3 3 3 4 5 5 5 6 7 11 13 14 15 16 16 16 16 15 15 15 15 15 15 15 15
5 5 5 5 6 5 4 5 4 4 4 5 5 5 4 4 3 4 6 5 6 6 8 9 11 14 15 16 16 16 16 16 16 16 16 16 16 16
3 3 3 3 4 3 3 3 3 3 3 4 5 5 5 4 4 4 6 7 7 6 6 7 7 7 9 11 14 16 16 17 17 17 17 17 17 17
2 1 1 2 2 2 1 1 2 3 4 4 5 6 7 6 5 5 6 7 7 3 4 6 5 8 8 8 12 15 16 17 17 17 18 18 18 18
3 3 3 4 4 3 3 3 3 2 2 3 5 6 6 5 6 7 7 8 9 7 7 11 9 10 9 9 14 16 17 17 18 18 18 18 18 18
4 4 4 4 5 4 3 3 3 3 3 2 4 5 6 6 6 7 8 9 9 8 7 10 10 11 10 9 13 16 17 18 18 18 18 19 19 19
4 4 4 3 5 5 3 4 4 4 4 5 7 8 10 11 8 6 6 6 9 7 5 7 9 10 10 11 11 15 17 18 18 19 19 19 19 17
3 3 5 4 5 4 2 2 4 5 6 7 6 7 7 8 9 6 6 7 7 6 4 5 7 7 8 7 7 8 10 13 17 19 19 19 18 13
2 2 3 6 6 5 3 2 4 5 5 5 5 6 6 5 6 5 5 6 8 8 6 6 8 9 10 10 9 9 10 11 11 12 15 18 19 15
2 2 2 5 6 5 3 4 6 5 3 4 5 5 6 7 7 8 8 8 9 11 11 10 9 10 11 13 12 9 9 10 11 12 11 13 15 18
2 3 5 6 6 4 6 7 6 4 4 4 5 6 6 7 8 8 9 9 10 10 10 10 10 10 10 12 13 12 12 11 11 12 12 12 12 11
3 5 5 5 4 5 6 5 4 4 4 5 6 6 7 7 8 8 8 9 9 10 9 10 10 11 11 13 12 13 12 11 10 11 12 12 12 12
3 3 3 4 5 5 5 5 5 6 6 6 6 7 7 7 8 7 7 8 9 10 11 10 10 10 12 12 13 13 13 13 12 12 11 13 13 12
3 3 4 4 5 5 6 6 6 6 7 7 7 7 7 8 9 8 8 9 10 10 11 11 11 11 11 10 12 14 12 12 12 12 12 13 14 12
3 4 4 5 5 6 6 6 7 7 7 7 7 8 8 8 9 9 9 9 10 10 11 10 10 10 13 14 10 10 12 12 12 12 12 12 14 13
4 4 5 5 6 6 7 7 7 8 8 7 8 8 8 9 9 9 9 11 11 11 12 10 9 9 11 14 13 13 14 14 12 13 13 12 13 13
5 5 5 6 6 7 7 7 8 8 8 8 8 9 9 9 10 10 10 13 12 11 12 12 11 14 12 10 11 11 12 13 15 13 12 11 12 11
5 6 6 6 7 7 7 7 8 8 9 8 8 9 9 9 10 12 11 11 10 11 13 12 12 11 10 11 13 14 14 13 12 16 19 17 11 10
6 6 6 7 7 7 7 8 9 8 8 9 9 9 9 10 10 10 11 11 11 12 12 12 11 10 11 11 12 12 15 14 11 10 11 13 18 21
Wind_Direction
171 170 167 177 174 172 161 157 150 181 272 286 292 297 280 264 259 249 247 254 253 250 249 248 248 249 252 255 258 260 260 260 259 258 258 259 259 260
183 183 193 194 189 180 173 173 169 172 223 257 259 279 287 283 258 244 249 255 256 254 252 251 251 250 250 250 251 253 254 255 255 254 253 253 254 256
200 201 214 199 198 196 187 184 188 182 219 259 248 263 268 275 283 266 258 254 257 254 253 251 250 250 249 249 248 248 249 249 250 251 251 251 250 251
216 214 226 215 216 212 204 209 211 207 219 257 262 255 252 259 268 273 269 259 255 257 254 253 251 250 249 249 248 247 247 247 247 247 248 248 248 248
218 220 231 223 233 230 224 229 230 225 221 245 268 260 263 262 273 275 272 268 265 261 256 253 251 250 249 248 248 247 246 246 245 245 244 244 245 245
222 224 231 228 238 240 237 240 240 239 233 245 265 272 270 265 258 279 289 280 277 277 266 261 255 252 250 248 247 246 245 244 244 243 242 242 241 241
223 222 230 233 240 238 241 247 240 245 252 259 271 280 282 282 277 278 286 294 285 266 268 266 261 260 259 254 250 248 245 243 242 241 240 240 239 239
195 163 108 44 24 22 347 297 242 243 258 262 271 277 285 288 290 286 290 293 291 270 267 279 269 267 264 259 252 247 247 245 244 242 240 238 237 237
93 84 72 53 42 25 13 20 14 357 293 263 274 283 294 300 303 296 286 280 277 283 282 282 274 271 268 263 250 246 246 247 247 245 243 240 238 236
75 82 81 52 31 23 15 13 1 345 320 300 275 282 289 292 284 281 282 281 275 272 264 275 279 275 275 267 256 249 248 248 248 248 246 243 241 238
63 64 71 60 27 23 22 358 341 332 330 332 315 303 299 298 297 293 287 285 286 284 262 263 277 282 279 272 263 250 248 249 250 250 249 247 245 242
51 42 42 32 18 19 14 345 328 323 328 329 325 318 312 306 305 287 282 284 288 290 274 270 286 297 288 272 269 272 267 260 254 252 251 249 247 247
51 24 12 7 7 4 352 320 303 308 315 318 318 318 318 316 314 306 287 277 280 276 281 285 284 284 277 283 281 276 273 273 270 262 251 246 244 237
57 13 351 355 358 354 350 339 335 337 332 329 326 323 321 319 316 311 301 289 276 275 280 279 276 279 282 284 284 280 274 273 272 271 269 258 246 237
28 12 2 357 351 350 347 344 346 346 338 330 323 316 311 308 308 306 304 300 292 282 280 277 277 280 277 279 283 283 283 278 269 266 266 262 259 251
13 2 359 356 352 341 340 343 341 331 322 312 308 306 308 308 306 308 307 311 306 301 295 289 283 280 279 279 279 281 277 274 271 269 268 266 260 253
360 7 6 356 350 344 339 335 333 330 324 316 311 311 310 309 307 308 303 305 300 301 304 302 292 282 274 274 276 274 274 272 269 269 267 267 263 256
32 3 348 341 334 331 329 327 325 322 318 312 309 308 309 309 307 306 302 301 300 300 300 302 303 300 292 275 248 266 272 274 275 271 268 268 268 261
24 355 342 335 330 327 325 322 319 317 312 308 307 308 306 305 305 304 302 301 299 299 298 298 296 293 293 293 283 249 272 282 281 276 269 264 267 267
2 345 337 333 329 326 323 320 316 314 312 310 308 307 306 305 304 302 301 300 300 300 299 295 289 285 284 289 291 285 266 267 272 274 273 270 267 268
346 338 332 327 324 320 318 316 314 311 310 310 307 306 304 303 300 299 298 298 295 295 296 295 293 291 287 282 279 279 278 261 254 263 272 272 271 267
335 329 325 320 318 316 315 314 313 312 313 310 308 305 304 301 299 299 298 297 295 293 293 292 294 295 292 287 287 290 292 289 273 256 250 250 257 259
330 325 320 318 316 314 313 313 313 310 309 308 307 306 305 302 299 297 297 296 295 295 296 297 298 296 293 289 289 290 292 294 292 290 276 256 246 249